| time (UTC) | temp C | wind direction | speed KPH | gust KPH | rain 1hr cm | rain 24hr cm | rain mn cm | humidity % | barometer mb |
| 20260904140222 | 22 | 74 | 4.8 | 27.4 | 0.00 | 0.00 | 0.00 | 32 | |
| 20260904135221 | 21 | 45 | 0.0 | 29.0 | 0.00 | 0.00 | 0.00 | 33 | |
| 20260904134221 | 22 | 56 | 3.2 | 20.9 | 0.00 | 0.00 | 0.00 | 32 | |
| 20260904133220 | 22 | 49 | 6.4 | 19.3 | 0.00 | 0.00 | 0.00 | 34 | |
| 20260904132219 | 21 | 33 | 3.2 | 27.4 | 0.00 | 0.00 | 0.00 | 34 | |
| 20260904131222 | 21 | 66 | 1.6 | 19.3 | 0.00 | 0.00 | 0.00 | 35 | |
| 20260904130220 | 21 | 39 | 1.6 | 27.4 | 0.00 | 0.00 | 0.00 | 35 | |
| 20260904125220 | 21 | 49 | 22.5 | 22.5 | 0.00 | 0.00 | 0.00 | 35 | |
| 20260904124218 | 20 | 45 | 3.2 | 32.2 | 0.00 | 0.00 | 0.00 | 100 | |
| 20260904123216 | 20 | 63 | 1.6 | 25.7 | 0.00 | 0.00 | 0.00 | 36 | |
| 20260904122216 | 20 | 47 | 4.8 | 22.5 | 0.00 | 0.00 | 0.00 | 37 | |
| 20260904121215 | 20 | 53 | 6.4 | 35.4 | 0.00 | 0.00 | 0.00 | 38 | |
| 20260904120215 | 19 | 45 | 17.7 | 33.8 | 0.00 | 0.00 | 0.00 | 39 | |
| 20260904115214 | 19 | 56 | 9.7 | 30.6 | 0.00 | 0.00 | 0.00 | 40 | |
| 20260904114214 | 19 | 47 | 3.2 | 27.4 | 0.00 | 0.00 | 0.00 | 39 | |
| 20260904113255 | 18 | 46 | 9.7 | 33.8 | 0.00 | 0.00 | 0.00 | 40 | |
| 20260904113213 | 18 | 46 | 9.7 | 33.8 | 0.00 | 0.00 | 0.00 | 40 | |
| 20260904112212 | 18 | 45 | 0.0 | 24.1 | 0.00 | 0.00 | 0.00 | 40 | |
| 20260904111212 | 18 | 49 | 9.7 | 29.0 | 0.00 | 0.00 | 0.00 | 42 | |
| 20260904110211 | 17 | 66 | 12.9 | 24.1 | 0.00 | 0.00 | 0.00 | 43 | |
| 20260904105211 | 17 | 46 | 19.3 | 24.1 | 0.00 | 0.00 | 0.00 | 44 | |
| 20260904104243 | 17 | 43 | 24.1 | 30.6 | 0.00 | 0.00 | 0.00 | 46 | |
| 20260904104210 | 17 | 43 | 24.1 | 30.6 | 0.00 | 0.00 | 0.00 | 46 | |
| 20260904103210 | 17 | 40 | 14.5 | 37.0 | 0.00 | 0.00 | 0.00 | 45 | |
| 20260904102209 | 16 | 59 | 4.8 | 27.4 | 0.00 | 0.00 | 0.00 | 46 | |
| 20260904101208 | 16 | 54 | 8.0 | 29.0 | 0.00 | 0.00 | 0.00 | 46 | |
| 20260904100208 | 17 | 54 | 4.8 | 29.0 | 0.00 | 0.00 | 0.00 | 47 | |
| 20260904095207 | 16 | 63 | 11.3 | 25.7 | 0.00 | 0.00 | 0.00 | 47 | |
| 20260904094207 | 17 | 56 | 4.8 | 37.0 | 0.00 | 0.00 | 0.00 | 47 | |
| 20260904093206 | 17 | 61 | 9.7 | 33.8 | 0.00 | 0.00 | 0.00 | 48 | |
| 20260904092205 | 17 | 21 | 0.0 | 20.9 | 0.00 | 0.00 | 0.00 | 47 | |
| 20260904091205 | 17 | 52 | 4.8 | 37.0 | 0.00 | 0.00 | 0.00 | 49 | |
| 20260904090204 | 17 | 57 | 11.3 | 25.7 | 0.00 | 0.00 | 0.00 | 49 | |
| 20260904085204 | 17 | 49 | 8.0 | 25.7 | 0.00 | 0.00 | 0.00 | 48 | |
| 20260904084203 | 17 | 42 | 16.1 | 20.9 | 0.00 | 0.00 | 0.00 | 47 | |
| 20260904083202 | 17 | 49 | 4.8 | 25.7 | 0.00 | 0.00 | 0.00 | 49 | |
| 20260904081701 | 17 | 60 | 22.5 | 25.7 | 0.00 | 0.00 | 0.00 | 49 | |
| 20260904080700 | 17 | 78 | 3.2 | 29.0 | 0.00 | 0.00 | 0.00 | 49 | |
| 20260904075700 | 17 | 64 | 29.0 | 32.2 | 0.00 | 0.00 | 0.00 | 48 | |
| 20260904074659 | 17 | 50 | 8.0 | 25.7 | 0.00 | 0.00 | 0.00 | 48 | |
| 20260904073658 | 17 | 67 | 0.0 | 25.7 | 0.00 | 0.00 | 0.00 | 48 | |
| 20260904072657 | 17 | 50 | 3.2 | 16.1 | 0.00 | 0.00 | 0.00 | 50 | |
| 20260904071657 | 16 | 61 | 9.7 | 20.9 | 0.00 | 0.00 | 0.00 | 50 | |
| 20260904070656 | 16 | 45 | 3.2 | 20.9 | 0.00 | 0.00 | 0.00 | 53 | |
| 20260904065656 | 15 | 59 | 0.0 | 14.5 | 0.00 | 0.00 | 0.00 | 100 | |
| 20260904064655 | 15 | 74 | 0.0 | 11.3 | 0.00 | 0.00 | 0.00 | 100 | |
| 20260904063655 | 14 | 49 | 0.0 | 9.7 | 0.00 | 0.00 | 0.00 | 100 | |
| 20260904062654 | 14 | 54 | 0.0 | 12.9 | 0.00 | 0.00 | 0.00 | 100 | |
| 20260904061653 | 13 | 61 | 14.5 | 24.1 | 0.00 | 0.00 | 0.00 | 61 | |
| 20260904060653 | 13 | 49 | 0.0 | 17.7 | 0.00 | 0.00 | 0.00 | 100 | |
| 20260904055652 | 12 | 45 | 6.4 | 20.9 | 0.00 | 0.00 | 0.00 | 64 | |
| 20260904054652 | 12 | 63 | 6.4 | 20.9 | 0.00 | 0.00 | 0.00 | 64 | |
| 20260904053651 | 12 | 56 | 0.0 | 17.7 | 0.00 | 0.00 | 0.00 | 64 | |
| 20260904052651 | 12 | 56 | 4.8 | 22.5 | 0.00 | 0.00 | 0.00 | 65 |